Flag for United Kingdom Weather past 2 weeks in Glasgow, Scotland, United Kingdom

Now
59 °F

Passing clouds.


Feels Like: 58 °F
Forecast: 43 / 51 °F
Wind: 6 mph from West

Location: Glasgow Airport


UV Index: 0 (Low)

Visibility: N/A


Pressure: 30.09 "Hg

Humidity: 55%

Dew point: 43 °F

Location of GlasgowLocation

Historic Weather in Glasgow

°F

Glasgow temperature yesterday

Maximum temperature yesterday: 61 °F (at 12:50 PM)
Minimum temperature yesterday: 48 °F (at 1:20 AM)
Average temperature yesterday: 54 °F

Past Weeks' High & Low Weather Summary

 TemperatureHumidityPressure
High63 °F (Apr 19, 2:20 PM)100% (Apr 10, 7:20 AM)30.42 "Hg (Apr 10, 7:20 AM)
Low28 °F (Apr 18, 5:20 AM)27% (Apr 19, 4:50 PM)29.77 "Hg (Apr 12, 8:20 AM)
Average49 °F76%30.06 "Hg
* Reported Apr 9 5:20 PM — Apr 24 5:50 PM, Glasgow, Weather by CustomWeather, © 2014

Note: Actual official high and low records may vary slightly from our data, if they occured in-between our weather recording intervals... More about our weather records

Advertising

Historic Weather Conditions — Data for Previous 24 hours

 ConditionsComfort  
Time TempWeatherWind HumidityBarometerVisibility
5:50 PM
Apr 24
59 °FPassing clouds.6 mph55%30.09 "HgN/A
5:20 PM59 °FPassing clouds.8 mph55%30.09 "HgN/A
4:50 PM59 °FScattered clouds.8 mph55%30.09 "HgN/A
4:20 PM59 °FScattered clouds.8 mph59%30.09 "HgN/A
3:50 PM61 °FScattered clouds.9 mph55%30.09 "HgN/A
3:20 PM59 °FScattered clouds.9 mph59%30.09 "HgN/A
2:50 PM59 °FScattered clouds.7 mph63%30.09 "HgN/A
2:20 PM59 °FScattered clouds.9 mph59%30.09 "HgN/A
1:50 PM57 °FBroken clouds.5 mph63%30.09 "HgN/A
1:20 PM57 °FBroken clouds.8 mph67%30.09 "HgN/A
12:50 PM57 °FScattered clouds.6 mph63%30.09 "HgN/A
12:20 PM55 °FBroken clouds.6 mph63%30.09 "HgN/A
11:50 AM55 °FScattered clouds.10 mph63%30.09 "HgN/A
11:20 AM57 °FScattered clouds.10 mph59%30.09 "HgN/A
10:50 AM55 °FScattered clouds.10 mph63%30.09 "HgN/A
10:20 AM55 °FBroken clouds.8 mph67%30.09 "HgN/A
9:50 AM54 °FBroken clouds.6 mph77%30.09 "HgN/A
9:20 AM52 °FScattered clouds.3 mph77%30.09 "HgN/A
8:20 AM52 °FScattered clouds.No wind82%30.09 "HgN/A
7:50 AM50 °FBroken clouds.2 mph88%30.07 "HgN/A
7:20 AM46 °FBroken clouds.No wind93%30.07 "HgN/A
6:50 AM45 °FPartly cloudy.2 mph93%30.07 "HgN/A
6:20 AM45 °FPassing clouds.No wind93%30.07 "HgN/A
5:50 AM46 °FPassing clouds.3 mph93%30.04 "HgN/A
5:20 AM46 °FPassing clouds.3 mph87%30.04 "HgN/A
4:50 AM46 °FPassing clouds.5 mph93%30.04 "HgN/A
4:20 AM46 °FPassing clouds.5 mph87%30.04 "HgN/A
3:50 AM46 °FPassing clouds.2 mph87%30.04 "HgN/A
3:20 AM48 °FClear.3 mph87%30.04 "Hg10 mi
2:50 AM48 °FClear.6 mph87%30.04 "Hg10 mi
2:20 AM50 °FClear.5 mph82%30.04 "Hg10 mi
1:50 AM50 °FClear.7 mph82%30.04 "Hg10 mi
1:20 AM50 °FClear.2 mph88%30.01 "Hg10 mi
12:50 AM50 °FClear.5 mph88%30.01 "Hg10 mi
12:20 AM50 °FClear.6 mph88%30.01 "Hg10 mi
11:20 PM
Apr 23
50 °FPassing clouds.3 mph94%30.01 "HgN/A
10:50 PM52 °FRain. Partly cloudy.13 mph88%30.01 "Hg3 mi
10:20 PM54 °FLight rain. Partly cloudy.6 mph88%29.98 "HgN/A
9:50 PM54 °FLight rain. Passing clouds.5 mph88%29.98 "HgN/A
9:20 PM52 °FPartly sunny.6 mph94%29.98 "HgN/A
8:50 PM54 °FLight rain. Broken clouds.5 mph88%29.98 "HgN/A
8:20 PM54 °FLight rain. Scattered clouds.5 mph88%29.95 "HgN/A
7:50 PM54 °FLight rain. Passing clouds.3 mph88%29.95 "HgN/A
7:20 PM55 °FLight rain. Broken clouds.5 mph77%29.95 "HgN/A
6:50 PM55 °FLight rain. Broken clouds.7 mph77%29.95 "HgN/A
6:20 PM57 °FLight rain. Broken clouds.6 mph72%29.95 "HgN/A
Weather by CustomWeather, © 2014

See weather overview